SSF364 URSS-ULWC

Flight info

Callsign SSF364
Flight time 3h 52m
Altitude 35000
Route N0420F350 IRGID A944 GUBOR G487 ERSAR DCT BEMES DCT VULFI DCT TUVGI DCT EVZUN DCT ZIZAR DCT VAZLU DCT UZZID DCT NOKLI N72 WGD G481 OBABI T619 UMRAL P163 LADIM/K0831F340 P163 GOLRI L736 OLOPI N50 LAKEG N156 UPEMA T825 OGTUL
Aircraft CRJ2/M-J/L

Departure

Time 2026-04-22 13:23
Airport Sochi International Airport (URSS)

Arrival

Time 2026-04-22 17:15
Airport Cherepovets Airport (ULWC)
Time Latitude Longitude Altitude Speed Heading
2026-04-22 13:03 43.44566 39.93872 68 ft 0 kts
2026-04-22 13:09 43.44567 39.93872 68 ft 0 kts
2026-04-22 13:12 43.44565 39.93872 68 ft 2 kts
2026-04-22 13:12 43.44554 39.93871 61 ft 2 kts
2026-04-22 13:12 43.44538 39.93869 60 ft 2 kts
2026-04-22 13:12 43.44521 39.93864 65 ft 2 kts 17°
2026-04-22 13:13 43.44507 39.93853 64 ft 2 kts 46°
2026-04-22 13:13 43.44500 39.93839 59 ft 1 kts 64°
2026-04-22 13:13 43.44500 39.93837 59 ft 0 kts 64°
2026-04-22 13:15 43.44500 39.93838 59 ft 0 kts 64°
2026-04-22 13:18 43.44500 39.93839 59 ft 0 kts 64°
2026-04-22 13:18 43.44511 39.93872 59 ft 7 kts 64°
2026-04-22 13:18 43.44534 39.93939 65 ft 8 kts 65°
2026-04-22 13:18 43.44558 39.94009 67 ft 9 kts 65°
2026-04-22 13:19 43.44586 39.94092 70 ft 10 kts 65°
2026-04-22 13:19 43.44602 39.94138 67 ft 0 kts 64°
2026-04-22 13:20 43.44609 39.94154 72 ft 5 kts 52°
2026-04-22 13:20 43.44645 39.94162 73 ft 7 kts 343°
2026-04-22 13:20 43.44665 39.94171 73 ft 4 kts 49°
2026-04-22 13:21 43.44697 39.94249 71 ft 14 kts 65°
2026-04-22 13:21 43.44739 39.94380 68 ft 16 kts 65°
2026-04-22 13:21 43.44790 39.94531 68 ft 19 kts 65°
2026-04-22 13:21 43.44847 39.94703 69 ft 20 kts 65°
2026-04-22 13:22 43.44903 39.94867 68 ft 18 kts 66°
2026-04-22 13:22 43.44867 39.94975 76 ft 12 kts 153°
2026-04-22 13:22 43.44790 39.95002 73 ft 12 kts 198°
2026-04-22 13:22 43.44762 39.94966 67 ft 2 kts 243°
2026-04-22 13:23 43.44730 39.94879 73 ft 37 kts 246°
2026-04-22 13:23 43.44508 39.94218 70 ft 114 kts 245°
2026-04-22 13:23 43.44082 39.92972 66 ft 172 kts 246°
2026-04-22 13:23 43.43542 39.91464 797 ft 178 kts 245°
2026-04-22 13:24 43.43016 39.89807 1336 ft 202 kts 261°
2026-04-22 13:24 43.43378 39.87911 1870 ft 223 kts 307°
2026-04-22 13:24 43.44704 39.86741 2574 ft 233 kts 340°
2026-04-22 13:24 43.46127 39.85725 3455 ft 235 kts 321°
2026-04-22 13:25 43.47238 39.84055 4310 ft 236 kts 304°
2026-04-22 13:25 43.48130 39.82130 5171 ft 238 kts 299°
2026-04-22 13:25 43.48961 39.80183 6027 ft 238 kts 299°
2026-04-22 13:25 43.49822 39.78220 6863 ft 238 kts 300°
2026-04-22 13:26 43.50697 39.76308 7683 ft 238 kts 300°
2026-04-22 13:26 43.51601 39.74395 8533 ft 237 kts 300°
2026-04-22 13:26 43.52492 39.72519 9376 ft 236 kts 299°
2026-04-22 13:26 43.53388 39.70611 10151 ft 236 kts 298°
2026-04-22 13:27 43.54280 39.68696 10824 ft 238 kts 298°
2026-04-22 13:27 43.55164 39.66789 11507 ft 239 kts 297°
2026-04-22 13:27 43.56071 39.64838 12198 ft 241 kts 296°
2026-04-22 13:27 43.56978 39.62885 12882 ft 242 kts 296°
2026-04-22 13:28 43.57880 39.60946 13547 ft 244 kts 295°
2026-04-22 13:28 43.58799 39.58967 14157 ft 245 kts 295°
2026-04-22 13:28 43.59726 39.56969 14746 ft 247 kts 295°
2026-04-22 13:28 43.60647 39.54981 15320 ft 248 kts 295°
2026-04-22 13:29 43.61586 39.52955 15897 ft 250 kts 295°
2026-04-22 13:29 43.62871 39.51235 16409 ft 275 kts 325°
2026-04-22 13:29 43.64807 39.50605 16947 ft 295 kts 346°
2026-04-22 13:29 43.66890 39.50613 17452 ft 310 kts
2026-04-22 13:30 43.68998 39.51393 17959 ft 322 kts 13°
2026-04-22 13:30 43.71055 39.52762 18403 ft 335 kts 34°
2026-04-22 13:30 43.72575 39.55251 18820 ft 344 kts 64°
2026-04-22 13:30 43.73347 39.58354 19258 ft 344 kts 81°
2026-04-22 13:31 43.73729 39.61626 19706 ft 345 kts 86°
2026-04-22 13:31 43.74054 39.64904 20159 ft 348 kts 85°
2026-04-22 13:31 43.74479 39.68226 20570 ft 351 kts 81°
2026-04-22 13:31 43.75018 39.71536 21012 ft 354 kts 79°
2026-04-22 13:32 43.75563 39.74845 21441 ft 357 kts 79°
2026-04-22 13:32 43.76086 39.78228 21863 ft 359 kts 80°
2026-04-22 13:32 43.76590 39.81635 22247 ft 361 kts 81°
2026-04-22 13:32 43.77072 39.85015 22642 ft 363 kts 81°
2026-04-22 13:33 43.77577 39.88472 23073 ft 365 kts 81°
2026-04-22 13:33 43.78082 39.91906 23430 ft 367 kts 80°
2026-04-22 13:33 43.78571 39.95377 23764 ft 369 kts 81°
2026-04-22 13:33 43.79049 39.98900 24097 ft 372 kts 81°
2026-04-22 13:34 43.79497 40.02400 24382 ft 374 kts 82°
2026-04-22 13:34 43.79934 40.05973 24644 ft 376 kts 82°
2026-04-22 13:34 43.80364 40.09535 24906 ft 379 kts 81°
2026-04-22 13:34 43.80835 40.13162 25197 ft 381 kts 81°
2026-04-22 13:35 43.81297 40.16738 25517 ft 383 kts 81°
2026-04-22 13:35 43.81768 40.20417 25781 ft 386 kts 80°
2026-04-22 13:35 43.82234 40.24063 26128 ft 388 kts 81°
2026-04-22 13:35 43.82704 40.27769 26375 ft 390 kts 80°
2026-04-22 13:36 43.83170 40.31441 26574 ft 392 kts 80°
2026-04-22 13:36 43.83648 40.35216 26850 ft 394 kts 80°
2026-04-22 13:36 43.84117 40.38943 27095 ft 397 kts 80°
2026-04-22 13:36 43.84591 40.42693 27325 ft 399 kts 80°
2026-04-22 13:37 43.85065 40.46465 27609 ft 400 kts 80°
2026-04-22 13:37 43.85544 40.50286 27860 ft 401 kts 80°
2026-04-22 13:37 43.86017 40.54075 28096 ft 403 kts 80°
2026-04-22 13:37 43.86497 40.57932 28372 ft 404 kts 79°
2026-04-22 13:38 43.86978 40.61793 28619 ft 406 kts 80°
2026-04-22 13:38 43.87932 40.69525 29037 ft 409 kts 79°
2026-04-22 13:38 43.88634 40.73320 29235 ft 408 kts 66°
2026-04-22 13:39 43.89800 40.76914 29487 ft 406 kts 59°
2026-04-22 13:39 43.91091 40.80412 29687 ft 408 kts 59°
2026-04-22 13:39 43.92289 40.83948 29876 ft 411 kts 63°
2026-04-22 13:39 43.93401 40.87630 30057 ft 412 kts 64°
2026-04-22 13:40 43.94477 40.91294 30227 ft 414 kts 64°
2026-04-22 13:40 43.95586 40.95015 30388 ft 415 kts 63°
2026-04-22 13:40 43.96723 40.98667 30557 ft 416 kts 63°
2026-04-22 13:40 43.97876 41.02377 30714 ft 418 kts 63°
2026-04-22 13:41 43.99021 41.06111 30898 ft 420 kts 63°
2026-04-22 13:41 44.00162 41.09815 31051 ft 421 kts 64°
2026-04-22 13:41 44.01315 41.13567 31212 ft 423 kts 64°
2026-04-22 13:41 44.02465 41.17314 31374 ft 424 kts 64°
2026-04-22 13:42 44.03629 41.21114 31500 ft 425 kts 64°
2026-04-22 13:42 44.04794 41.24919 31602 ft 428 kts 64°
2026-04-22 13:42 44.05949 41.28696 31727 ft 430 kts 64°
2026-04-22 13:42 44.07125 41.32546 31904 ft 430 kts 64°
2026-04-22 13:43 44.08281 41.36342 32085 ft 430 kts 64°
2026-04-22 13:43 44.09454 41.40191 32265 ft 430 kts 64°
2026-04-22 13:43 44.10607 41.44004 32443 ft 430 kts 66°
2026-04-22 13:43 44.11423 41.48032 32556 ft 433 kts 81°
2026-04-22 13:44 44.11764 41.52154 32741 ft 432 kts 88°
2026-04-22 13:44 44.11755 41.56355 32904 ft 430 kts 96°
2026-04-22 13:44 44.11523 41.60479 33069 ft 430 kts 98°
2026-04-22 13:44 44.11294 41.64642 33212 ft 430 kts 96°
2026-04-22 13:45 44.11189 41.68775 33349 ft 432 kts 93°
2026-04-22 13:45 44.11136 41.72970 33511 ft 431 kts 93°
2026-04-22 13:45 44.11062 41.77118 33640 ft 431 kts 94°
2026-04-22 13:45 44.10933 41.81299 33744 ft 431 kts 95°
2026-04-22 13:46 44.10795 41.85478 33887 ft 431 kts 95°
2026-04-22 13:46 44.10654 41.89603 33982 ft 432 kts 95°
2026-04-22 13:46 44.10527 41.93787 34111 ft 431 kts 94°
2026-04-22 13:46 44.10407 41.97975 34225 ft 431 kts 94°
2026-04-22 13:47 44.10285 42.02107 34348 ft 430 kts 94°
2026-04-22 13:47 44.10161 42.06282 34489 ft 429 kts 94°
2026-04-22 13:47 44.10037 42.10385 34591 ft 429 kts 94°
2026-04-22 13:47 44.09911 42.14550 34724 ft 428 kts 94°
2026-04-22 13:48 44.09784 42.18695 34838 ft 428 kts 94°
2026-04-22 13:48 44.09656 42.22782 34908 ft 429 kts 94°
2026-04-22 13:48 44.09391 42.31092 34956 ft 428 kts 94°
2026-04-22 13:49 44.09124 42.39334 34960 ft 428 kts 94°
2026-04-22 13:49 44.08849 42.47588 34971 ft 429 kts 94°
2026-04-22 13:50 44.08566 42.55909 34967 ft 429 kts 94°
2026-04-22 13:50 44.08280 42.64190 34966 ft 430 kts 94°
2026-04-22 13:51 44.07986 42.72479 34970 ft 431 kts 94°
2026-04-22 13:51 44.07687 42.80829 34974 ft 432 kts 94°
2026-04-22 13:52 44.07378 42.89168 34979 ft 433 kts 94°
2026-04-22 13:52 44.07064 42.97516 34985 ft 433 kts 94°
2026-04-22 13:53 44.06744 43.05880 34989 ft 434 kts 94°
2026-04-22 13:53 44.06414 43.14303 34981 ft 435 kts 94°
2026-04-22 13:54 44.06081 43.22697 34978 ft 436 kts 94°
2026-04-22 13:54 44.05740 43.31095 34965 ft 437 kts 94°
2026-04-22 13:55 44.05391 43.39533 34957 ft 438 kts 94°
2026-04-22 13:55 44.05038 43.47993 34944 ft 438 kts 94°
2026-04-22 13:56 44.04676 43.56433 34939 ft 439 kts 94°
2026-04-22 13:56 44.04307 43.64905 34938 ft 439 kts 95°
2026-04-22 13:57 44.03932 43.73375 34934 ft 441 kts 95°
2026-04-22 13:57 44.03544 43.81971 34937 ft 446 kts 94°
2026-04-22 13:58 44.03150 43.90603 34943 ft 450 kts 95°
2026-04-22 13:58 44.02745 43.99319 34947 ft 455 kts 95°
2026-04-22 13:59 44.02328 44.08113 34954 ft 459 kts 95°
2026-04-22 13:59 44.01901 44.17003 34953 ft 464 kts 95°
2026-04-22 14:00 44.01465 44.25956 34955 ft 468 kts 95°
2026-04-22 14:00 44.01014 44.35000 34955 ft 472 kts 95°
2026-04-22 14:01 44.00539 44.44127 34952 ft 476 kts 95°
2026-04-22 14:01 44.00064 44.53326 34957 ft 481 kts 95°
2026-04-22 14:02 43.99579 44.62667 34952 ft 484 kts 95°
2026-04-22 14:02 43.99084 44.71958 34950 ft 487 kts 95°
2026-04-22 14:03 43.98578 44.81352 34947 ft 490 kts 96°
2026-04-22 14:03 43.98062 44.90811 34932 ft 490 kts 96°
2026-04-22 14:04 43.97539 45.00243 34933 ft 491 kts 96°
2026-04-22 14:04 43.97005 45.09698 34929 ft 491 kts 96°
2026-04-22 14:05 43.96467 45.19115 34919 ft 491 kts 96°
2026-04-22 14:06 43.95644 45.33288 34911 ft 491 kts 96°
2026-04-22 14:06 43.95086 45.42719 34904 ft 489 kts 96°
2026-04-22 14:07 43.94522 45.52119 34896 ft 488 kts 96°
2026-04-22 14:07 43.93952 45.61496 34888 ft 487 kts 96°
2026-04-22 14:08 43.93376 45.70844 34886 ft 486 kts 96°
2026-04-22 14:08 43.92893 45.78597 34886 ft 485 kts 96°
2026-04-22 14:09 43.92304 45.87906 34879 ft 484 kts 95°
2026-04-22 14:09 43.92767 45.98708 34878 ft 483 kts 81°
2026-04-22 14:10 43.93662 46.07937 34881 ft 482 kts 84°
2026-04-22 14:10 43.94202 46.15688 34878 ft 481 kts 84°
2026-04-22 14:11 43.94859 46.24925 34878 ft 481 kts 84°
2026-04-22 14:11 43.95515 46.34146 34877 ft 480 kts 84°
2026-04-22 14:12 43.96159 46.43354 34878 ft 479 kts 84°
2026-04-22 14:12 43.96793 46.52546 34879 ft 478 kts 84°
2026-04-22 14:13 43.97420 46.61731 34882 ft 478 kts 84°
2026-04-22 14:13 43.98039 46.70907 34880 ft 477 kts 84°
2026-04-22 14:14 43.98646 46.80014 34880 ft 477 kts 84°
2026-04-22 14:14 43.99252 46.89229 34881 ft 476 kts 85°
2026-04-22 14:15 43.99846 46.98380 34888 ft 475 kts 85°
2026-04-22 14:15 44.00427 47.07462 34886 ft 475 kts 85°
2026-04-22 14:16 44.01005 47.16597 34890 ft 474 kts 85°
2026-04-22 14:16 44.01575 47.25717 34890 ft 474 kts 85°
2026-04-22 14:17 44.02137 47.34832 34889 ft 473 kts 85°
2026-04-22 14:17 44.02691 47.43939 34891 ft 473 kts 85°
2026-04-22 14:18 44.03239 47.53040 34891 ft 472 kts 85°
2026-04-22 14:18 44.03777 47.62127 34892 ft 472 kts 85°
2026-04-22 14:19 44.04308 47.71213 34890 ft 471 kts 85°
2026-04-22 14:19 44.04830 47.80291 34890 ft 471 kts 86°
2026-04-22 14:20 44.05603 47.93927 34892 ft 470 kts 86°
2026-04-22 14:20 44.06104 48.02931 34893 ft 469 kts 86°
2026-04-22 14:21 44.06845 48.16458 34895 ft 468 kts 86°
2026-04-22 14:22 44.07566 48.30000 34892 ft 467 kts 86°
2026-04-22 14:23 44.08265 48.43457 34894 ft 466 kts 86°
2026-04-22 14:23 44.08732 48.52398 34892 ft 465 kts 86°
2026-04-22 14:24 44.09193 48.61360 34888 ft 465 kts 86°
2026-04-22 14:24 44.09648 48.70368 34897 ft 465 kts 87°
2026-04-22 14:25 44.10229 48.79282 34889 ft 465 kts 77°
2026-04-22 14:25 44.11231 48.83549 34898 ft 463 kts 63°
2026-04-22 14:25 44.12847 48.87356 34906 ft 459 kts 50°
2026-04-22 14:25 44.15008 48.90578 34916 ft 452 kts 36°
2026-04-22 14:26 44.17593 48.93028 34921 ft 444 kts 22°
2026-04-22 14:26 44.20425 48.94572 34930 ft 435 kts
2026-04-22 14:26 44.23356 48.95512 34931 ft 432 kts
2026-04-22 14:27 44.29278 48.96927 34916 ft 431 kts
2026-04-22 14:27 44.35179 48.98170 34912 ft 431 kts
2026-04-22 14:28 44.41079 48.98606 34912 ft 417 kts 343°
2026-04-22 14:28 44.43824 48.97516 34921 ft 405 kts 329°
2026-04-22 14:28 44.46221 48.95554 34934 ft 394 kts 316°
2026-04-22 14:29 44.50623 48.90980 34921 ft 399 kts 321°
2026-04-22 14:29 44.55683 48.87544 34912 ft 408 kts 332°
2026-04-22 14:30 44.60972 48.84667 34912 ft 409 kts 332°
2026-04-22 14:30 44.66209 48.81656 34903 ft 408 kts 330°
2026-04-22 14:31 44.71470 48.78561 34908 ft 409 kts 330°
2026-04-22 14:31 44.76691 48.75482 34910 ft 409 kts 330°
2026-04-22 14:32 44.81936 48.72386 34915 ft 409 kts 330°
2026-04-22 14:32 44.87182 48.69279 34912 ft 409 kts 330°
2026-04-22 14:33 44.92416 48.66176 34916 ft 409 kts 330°
2026-04-22 14:33 44.97641 48.63071 34913 ft 409 kts 330°
2026-04-22 14:34 45.02911 48.59933 34912 ft 409 kts 330°
2026-04-22 14:34 45.08162 48.56801 34912 ft 409 kts 330°
2026-04-22 14:35 45.13382 48.53680 34911 ft 409 kts 330°
2026-04-22 14:35 45.18640 48.50531 34910 ft 410 kts 330°
2026-04-22 14:36 45.23912 48.47367 34913 ft 410 kts 330°
2026-04-22 14:36 45.29112 48.44239 34913 ft 411 kts 330°
2026-04-22 14:37 45.34377 48.41068 34915 ft 411 kts 330°
2026-04-22 14:37 45.39628 48.37896 34907 ft 412 kts 330°
2026-04-22 14:38 45.44929 48.34690 34912 ft 412 kts 330°
2026-04-22 14:38 45.50189 48.31502 34905 ft 413 kts 330°
2026-04-22 14:39 45.55487 48.28283 34904 ft 413 kts 330°
2026-04-22 14:39 45.60741 48.25084 34903 ft 414 kts 330°
2026-04-22 14:40 45.68690 48.20233 34901 ft 414 kts 330°
2026-04-22 14:40 45.73991 48.16990 34901 ft 415 kts 330°
2026-04-22 14:41 45.79309 48.13729 34898 ft 416 kts 330°
2026-04-22 14:41 45.84625 48.10463 34898 ft 416 kts 329°
2026-04-22 14:42 45.89944 48.07188 34896 ft 417 kts 329°
2026-04-22 14:42 45.95256 48.03911 34899 ft 417 kts 329°
2026-04-22 14:43 46.00594 48.00609 34898 ft 418 kts 329°
2026-04-22 14:43 46.05489 47.96486 34911 ft 401 kts 311°
2026-04-22 14:44 46.09514 47.90958 34912 ft 399 kts 309°
2026-04-22 14:44 46.13268 47.85104 34915 ft 393 kts 300°
2026-04-22 14:45 46.16196 47.78512 34914 ft 390 kts 296°
2026-04-22 14:45 46.19045 47.71849 34902 ft 392 kts 297°
2026-04-22 14:46 46.21993 47.65285 34899 ft 392 kts 297°
2026-04-22 14:46 46.24969 47.58648 34898 ft 392 kts 297°
2026-04-22 14:47 46.27918 47.52063 34891 ft 393 kts 297°
2026-04-22 14:47 46.30894 47.45406 34887 ft 393 kts 297°
2026-04-22 14:48 46.33844 47.38795 34890 ft 393 kts 297°
2026-04-22 14:48 46.36812 47.32117 34890 ft 393 kts 297°
2026-04-22 14:49 46.39757 47.25482 34891 ft 393 kts 297°
2026-04-22 14:49 46.42711 47.18810 34890 ft 394 kts 297°
2026-04-22 14:50 46.45658 47.12135 34879 ft 393 kts 297°
2026-04-22 14:50 46.48606 47.05447 34889 ft 393 kts 297°
2026-04-22 14:51 46.51559 46.98727 34885 ft 393 kts 297°
2026-04-22 14:51 46.54481 46.92063 34884 ft 394 kts 297°
2026-04-22 14:52 46.57429 46.85325 34886 ft 394 kts 297°
2026-04-22 14:52 46.60356 46.78621 34884 ft 394 kts 297°
2026-04-22 14:53 46.63285 46.71890 34884 ft 394 kts 297°
2026-04-22 14:53 46.66204 46.65164 34883 ft 394 kts 297°
2026-04-22 14:54 46.69128 46.58417 34879 ft 394 kts 297°
2026-04-22 14:54 46.72065 46.51620 34878 ft 394 kts 297°
2026-04-22 14:55 46.74969 46.44883 34874 ft 394 kts 297°
2026-04-22 14:55 46.77894 46.38082 34873 ft 394 kts 297°
2026-04-22 14:56 46.80806 46.31292 34870 ft 394 kts 297°
2026-04-22 14:56 46.83706 46.24515 34868 ft 394 kts 297°
2026-04-22 14:57 46.86595 46.17746 34862 ft 394 kts 297°
2026-04-22 14:57 46.89555 46.10969 34848 ft 398 kts 303°
2026-04-22 14:58 46.91558 46.08083 34865 ft 407 kts 314°
2026-04-22 14:58 46.93809 46.05579 34867 ft 410 kts 317°
2026-04-22 14:58 46.98467 46.00781 34856 ft 412 kts 319°
2026-04-22 14:59 47.03349 45.96257 34859 ft 418 kts 325°
2026-04-22 14:59 47.08627 45.92614 34853 ft 422 kts 328°
2026-04-22 15:00 47.13969 45.89035 34850 ft 422 kts 327°
2026-04-22 15:00 47.19248 45.85327 34841 ft 422 kts 327°
2026-04-22 15:01 47.24517 45.81615 34841 ft 422 kts 327°
2026-04-22 15:01 47.29818 45.77872 34839 ft 423 kts 328°
2026-04-22 15:02 47.35136 45.74107 34758 ft 426 kts 328°
2026-04-22 15:02 47.40517 45.70290 34577 ft 431 kts 328°
2026-04-22 15:03 47.45956 45.66423 34402 ft 436 kts 328°
2026-04-22 15:03 47.50415 45.63243 34254 ft 439 kts 328°
2026-04-22 15:04 47.55977 45.59276 34085 ft 443 kts 328°
2026-04-22 15:04 47.61515 45.55314 33916 ft 447 kts 328°
2026-04-22 15:05 47.67110 45.51297 33847 ft 447 kts 328°
2026-04-22 15:05 47.71778 45.47944 33832 ft 446 kts 328°
2026-04-22 15:06 47.78178 45.43099 33824 ft 438 kts 321°
2026-04-22 15:06 47.82263 45.38679 33832 ft 434 kts 316°
2026-04-22 15:07 47.86783 45.32852 33819 ft 429 kts 311°
2026-04-22 15:07 47.91165 45.26755 33816 ft 429 kts 312°
2026-04-22 15:08 47.95545 45.20728 33815 ft 429 kts 312°
2026-04-22 15:08 47.99937 45.14753 33816 ft 429 kts 313°
2026-04-22 15:09 48.04583 45.09077 33812 ft 433 kts 320°
2026-04-22 15:09 48.09602 45.04161 33814 ft 434 kts 322°
2026-04-22 15:10 48.14674 44.99201 33809 ft 433 kts 321°
2026-04-22 15:10 48.19666 44.94178 33809 ft 433 kts 321°
2026-04-22 15:11 48.24653 44.89148 33809 ft 432 kts 321°
2026-04-22 15:11 48.29642 44.84101 33805 ft 432 kts 321°
2026-04-22 15:12 48.34599 44.79073 33804 ft 432 kts 321°
2026-04-22 15:12 48.39571 44.74019 33798 ft 431 kts 321°
2026-04-22 15:13 48.44543 44.68955 33798 ft 431 kts 321°
2026-04-22 15:13 48.49520 44.63879 33792 ft 432 kts 321°
2026-04-22 15:14 48.54481 44.58780 33799 ft 432 kts 321°
2026-04-22 15:14 48.59456 44.53667 33798 ft 433 kts 321°
2026-04-22 15:15 48.64408 44.48569 33798 ft 433 kts 321°
2026-04-22 15:15 48.69419 44.43393 33803 ft 434 kts 321°
2026-04-22 15:16 48.74367 44.38276 33810 ft 434 kts 321°
2026-04-22 15:16 48.79645 44.33619 33806 ft 440 kts 329°
2026-04-22 15:17 48.85291 44.30102 33809 ft 445 kts 336°
2026-04-22 15:17 48.91149 44.27006 33801 ft 445 kts 335°
2026-04-22 15:18 48.96959 44.23730 33793 ft 445 kts 335°
2026-04-22 15:18 49.02773 44.20426 33786 ft 445 kts 335°
2026-04-22 15:19 49.08539 44.17140 33783 ft 446 kts 335°
2026-04-22 15:19 49.14383 44.13803 33780 ft 446 kts 335°
2026-04-22 15:20 49.20198 44.10474 33789 ft 447 kts 335°
2026-04-22 15:20 49.25996 44.07145 33780 ft 447 kts 335°
2026-04-22 15:21 49.31801 44.03805 33774 ft 448 kts 335°
2026-04-22 15:21 49.37649 44.00430 33772 ft 448 kts 335°
2026-04-22 15:22 49.43490 43.97051 33780 ft 448 kts 335°
2026-04-22 15:22 49.49333 43.93666 33780 ft 449 kts 336°
2026-04-22 15:23 49.54942 43.89707 33780 ft 445 kts 328°
2026-04-22 15:23 49.60329 43.84993 33779 ft 445 kts 327°
2026-04-22 15:24 49.65767 43.80355 33781 ft 446 kts 328°
2026-04-22 15:24 49.71187 43.75794 33774 ft 446 kts 328°
2026-04-22 15:25 49.75730 43.71964 33777 ft 446 kts 328°
2026-04-22 15:25 49.80850 43.67640 33779 ft 446 kts 328°
2026-04-22 15:26 49.86274 43.63043 33779 ft 444 kts 328°
2026-04-22 15:26 49.91699 43.58439 33778 ft 443 kts 328°
2026-04-22 15:27 49.97086 43.53849 33776 ft 443 kts 328°
2026-04-22 15:27 50.02482 43.49241 33780 ft 442 kts 328°
2026-04-22 15:28 50.07847 43.44649 33781 ft 441 kts 328°
2026-04-22 15:28 50.13243 43.40021 33776 ft 441 kts 328°
2026-04-22 15:29 50.18580 43.35431 33778 ft 440 kts 328°
2026-04-22 15:30 50.26622 43.28495 33780 ft 439 kts 328°
2026-04-22 15:30 50.31964 43.23865 33781 ft 438 kts 328°
2026-04-22 15:31 50.37260 43.19266 33788 ft 437 kts 328°
2026-04-22 15:31 50.42586 43.14630 33781 ft 436 kts 328°
2026-04-22 15:32 50.47879 43.10017 33780 ft 435 kts 328°
2026-04-22 15:32 50.53124 43.05423 33783 ft 434 kts 328°
2026-04-22 15:33 50.58395 43.00801 33789 ft 434 kts 328°
2026-04-22 15:33 50.63651 42.96179 33787 ft 433 kts 328°
2026-04-22 15:34 50.68928 42.91565 33788 ft 433 kts 331°
2026-04-22 15:34 50.74539 42.88032 33792 ft 435 kts 339°
2026-04-22 15:35 50.79320 42.85597 33787 ft 435 kts 340°
2026-04-22 15:35 50.85992 42.81941 33794 ft 434 kts 338°
2026-04-22 15:36 50.91676 42.78763 33795 ft 434 kts 338°
2026-04-22 15:36 50.97401 42.75553 33794 ft 434 kts 338°
2026-04-22 15:37 51.03062 42.72369 33793 ft 434 kts 338°
2026-04-22 15:37 51.08761 42.69155 33794 ft 434 kts 338°
2026-04-22 15:38 51.14425 42.65953 33792 ft 434 kts 338°
2026-04-22 15:38 51.22948 42.61118 33794 ft 433 kts 338°
2026-04-22 15:39 51.28612 42.57895 33795 ft 433 kts 339°
2026-04-22 15:39 51.34311 42.54642 33791 ft 433 kts 338°
2026-04-22 15:40 51.39965 42.51407 33795 ft 433 kts 338°
2026-04-22 15:40 51.45614 42.48169 33792 ft 432 kts 339°
2026-04-22 15:41 51.51268 42.44915 33790 ft 432 kts 339°
2026-04-22 15:41 51.56949 42.41641 33790 ft 432 kts 339°
2026-04-22 15:42 51.62602 42.38372 33789 ft 432 kts 339°
2026-04-22 15:42 51.68242 42.35100 33785 ft 432 kts 339°
2026-04-22 15:43 51.73900 42.31814 33789 ft 432 kts 339°
2026-04-22 15:43 51.79529 42.28534 33780 ft 431 kts 339°
2026-04-22 15:44 51.85175 42.25234 33781 ft 431 kts 339°
2026-04-22 15:44 51.90834 42.21918 33786 ft 431 kts 339°
2026-04-22 15:45 51.96448 42.18619 33785 ft 431 kts 339°
2026-04-22 15:45 52.02076 42.15305 33778 ft 431 kts 339°
2026-04-22 15:46 52.07702 42.11986 33783 ft 431 kts 339°
2026-04-22 15:46 52.13361 42.08671 33769 ft 430 kts 340°
2026-04-22 15:47 52.19015 42.05513 33770 ft 430 kts 340°
2026-04-22 15:47 52.24669 42.02384 33770 ft 430 kts 340°
2026-04-22 15:48 52.30326 41.99230 33763 ft 430 kts 340°
2026-04-22 15:48 52.36081 41.96568 33762 ft 430 kts 352°
2026-04-22 15:49 52.42014 41.95716 33764 ft 430 kts 357°
2026-04-22 15:49 52.48013 41.95944 33754 ft 430 kts
2026-04-22 15:50 52.53965 41.96454 33756 ft 429 kts
2026-04-22 15:50 52.59906 41.96800 33751 ft 429 kts
2026-04-22 15:51 52.65837 41.96409 33748 ft 428 kts 346°
2026-04-22 15:51 52.71373 41.92830 33753 ft 427 kts 336°
2026-04-22 15:52 52.76748 41.88737 33747 ft 427 kts 334°
2026-04-22 15:52 52.81679 41.83316 33756 ft 426 kts 319°
2026-04-22 15:53 52.86089 41.76793 33740 ft 426 kts 319°
2026-04-22 15:53 52.90640 41.70559 33738 ft 426 kts 322°
2026-04-22 15:54 52.95250 41.64321 33732 ft 426 kts 321°
2026-04-22 15:54 52.99809 41.58109 33725 ft 426 kts 321°
2026-04-22 15:55 53.04396 41.51846 33721 ft 426 kts 321°
2026-04-22 15:55 53.08956 41.45601 33722 ft 426 kts 321°
2026-04-22 15:56 53.13508 41.39351 33720 ft 425 kts 321°
2026-04-22 15:56 53.18086 41.33049 33731 ft 425 kts 321°
2026-04-22 15:57 53.22997 41.27731 33724 ft 423 kts 336°
2026-04-22 15:57 53.28414 41.24003 33723 ft 422 kts 340°
2026-04-22 15:58 53.33976 41.20924 33720 ft 422 kts 344°
2026-04-22 15:58 53.39623 41.18173 33715 ft 421 kts 344°
2026-04-22 15:59 53.45228 41.15365 33718 ft 421 kts 343°
2026-04-22 15:59 53.50815 41.12497 33712 ft 421 kts 344°
2026-04-22 16:00 53.56425 41.09608 33718 ft 420 kts 344°
2026-04-22 16:00 53.62006 41.06657 33706 ft 420 kts 339°
2026-04-22 16:01 53.64569 41.04296 33707 ft 422 kts 325°
2026-04-22 16:01 53.66735 41.01019 33720 ft 423 kts 316°
2026-04-22 16:01 53.70745 40.93702 33722 ft 424 kts 313°
2026-04-22 16:02 53.74556 40.86141 33717 ft 424 kts 311°
2026-04-22 16:02 53.76171 40.81948 33711 ft 427 kts 297°
2026-04-22 16:02 53.77273 40.77297 33715 ft 428 kts 292°
2026-04-22 16:03 53.79290 40.67877 33708 ft 427 kts 294°
2026-04-22 16:03 53.81633 40.58682 33707 ft 426 kts 296°
2026-04-22 16:04 53.84003 40.49437 33704 ft 426 kts 295°
2026-04-22 16:04 53.86326 40.40248 33705 ft 426 kts 295°
2026-04-22 16:05 53.88667 40.30989 33701 ft 426 kts 296°
2026-04-22 16:05 53.90992 40.21795 33699 ft 425 kts 296°
2026-04-22 16:06 53.93315 40.12568 33697 ft 425 kts 296°
2026-04-22 16:06 53.95618 40.03372 33695 ft 425 kts 295°
2026-04-22 16:07 53.97919 39.94149 33693 ft 424 kts 295°
2026-04-22 16:07 54.00217 39.84908 33688 ft 424 kts 295°
2026-04-22 16:08 54.02131 39.77174 33685 ft 424 kts 295°
2026-04-22 16:08 54.04394 39.67994 33684 ft 423 kts 295°
2026-04-22 16:09 54.06672 39.58720 33683 ft 423 kts 295°
2026-04-22 16:09 54.08923 39.49517 33682 ft 423 kts 295°
2026-04-22 16:10 54.11181 39.40244 33677 ft 422 kts 295°
2026-04-22 16:10 54.13406 39.31065 33677 ft 421 kts 295°
2026-04-22 16:11 54.15635 39.21832 33674 ft 421 kts 295°
2026-04-22 16:11 54.17859 39.12579 33674 ft 420 kts 295°
2026-04-22 16:12 54.20063 39.03373 33675 ft 420 kts 295°
2026-04-22 16:12 54.22410 38.94229 33669 ft 416 kts 304°
2026-04-22 16:13 54.25980 38.86567 33677 ft 412 kts 314°
2026-04-22 16:13 54.29900 38.79512 33671 ft 410 kts 317°
2026-04-22 16:14 54.34125 38.72885 33664 ft 409 kts 320°
2026-04-22 16:14 54.38313 38.66504 33664 ft 409 kts 320°
2026-04-22 16:15 54.42518 38.59934 33657 ft 409 kts 320°
2026-04-22 16:15 54.46699 38.53351 33659 ft 408 kts 319°
2026-04-22 16:16 54.50877 38.46748 33658 ft 408 kts 319°
2026-04-22 16:16 54.55076 38.40096 33655 ft 408 kts 319°
2026-04-22 16:17 54.59225 38.33501 33657 ft 408 kts 319°
2026-04-22 16:17 54.63397 38.26856 33653 ft 407 kts 319°
2026-04-22 16:18 54.67544 38.20227 33652 ft 407 kts 319°
2026-04-22 16:18 54.71683 38.13595 33648 ft 407 kts 319°
2026-04-22 16:19 54.75813 38.06914 33649 ft 407 kts 319°
2026-04-22 16:19 54.79961 38.00225 33646 ft 407 kts 319°
2026-04-22 16:20 54.84097 37.93526 33643 ft 407 kts 319°
2026-04-22 16:20 54.88223 37.86836 33640 ft 406 kts 318°
2026-04-22 16:21 54.92329 37.80153 33635 ft 406 kts 318°
2026-04-22 16:21 54.96468 37.73386 33638 ft 406 kts 318°
2026-04-22 16:22 55.02638 37.63267 33635 ft 406 kts 318°
2026-04-22 16:23 55.09984 37.56724 33636 ft 402 kts 348°
2026-04-22 16:23 55.15486 37.55063 33635 ft 402 kts 351°
2026-04-22 16:24 55.23787 37.53618 33618 ft 403 kts
2026-04-22 16:25 55.29107 37.55953 33624 ft 403 kts 15°
2026-04-22 16:25 55.37295 37.59239 33617 ft 403 kts
2026-04-22 16:26 55.42826 37.61027 33611 ft 404 kts
2026-04-22 16:26 55.48322 37.62922 33610 ft 404 kts 10°
2026-04-22 16:27 55.53842 37.64861 33612 ft 404 kts 10°
2026-04-22 16:27 55.59374 37.66779 33607 ft 405 kts 10°
2026-04-22 16:28 55.64900 37.68687 33606 ft 405 kts
2026-04-22 16:28 55.70490 37.70039 33603 ft 405 kts
2026-04-22 16:29 55.76079 37.71124 33601 ft 405 kts
2026-04-22 16:29 55.81649 37.72297 33600 ft 405 kts
2026-04-22 16:30 55.87277 37.73542 33601 ft 406 kts
2026-04-22 16:30 55.92865 37.74752 33603 ft 406 kts
2026-04-22 16:31 55.98490 37.75967 33599 ft 407 kts
2026-04-22 16:31 56.04087 37.77187 33597 ft 407 kts
2026-04-22 16:32 56.09711 37.78420 33591 ft 408 kts
2026-04-22 16:32 56.15357 37.79654 33586 ft 408 kts
2026-04-22 16:33 56.20984 37.80892 33574 ft 409 kts
2026-04-22 16:33 56.26658 37.82143 33571 ft 409 kts
2026-04-22 16:34 56.32317 37.83395 33566 ft 410 kts
2026-04-22 16:34 56.37957 37.84645 33562 ft 410 kts
2026-04-22 16:35 56.43643 37.85910 33563 ft 411 kts
2026-04-22 16:35 56.49308 37.87175 33557 ft 411 kts
2026-04-22 16:36 56.54993 37.88448 33553 ft 412 kts
2026-04-22 16:36 56.60672 37.89720 33550 ft 412 kts
2026-04-22 16:37 56.66351 37.91001 33543 ft 413 kts
2026-04-22 16:37 56.72065 37.92292 33535 ft 413 kts
2026-04-22 16:38 56.77782 37.93589 33533 ft 413 kts
2026-04-22 16:38 56.83467 37.94879 33529 ft 414 kts
2026-04-22 16:39 56.89174 37.96181 33528 ft 414 kts
2026-04-22 16:39 56.94919 37.97493 33521 ft 414 kts
2026-04-22 16:40 57.00604 37.98797 33520 ft 414 kts
2026-04-22 16:41 57.09195 38.00461 33514 ft 414 kts
2026-04-22 16:41 57.14961 38.01364 33505 ft 415 kts
2026-04-22 16:42 57.20687 38.02272 33508 ft 415 kts
2026-04-22 16:42 57.26451 38.03185 33500 ft 415 kts
2026-04-22 16:43 57.32217 38.04105 33498 ft 415 kts
2026-04-22 16:43 57.37965 38.05019 33493 ft 416 kts
2026-04-22 16:44 57.43715 38.05947 33491 ft 416 kts
2026-04-22 16:44 57.49451 38.06868 33483 ft 416 kts
2026-04-22 16:45 57.55234 38.07801 33481 ft 416 kts
2026-04-22 16:45 57.60985 38.08733 33477 ft 416 kts
2026-04-22 16:46 57.66751 38.09664 33477 ft 416 kts
2026-04-22 16:46 57.72523 38.10608 33467 ft 417 kts
2026-04-22 16:47 57.78278 38.11550 33464 ft 417 kts
2026-04-22 16:47 57.83102 38.12339 33457 ft 417 kts
2026-04-22 16:47 57.86943 38.12972 33194 ft 419 kts
2026-04-22 16:48 57.89830 38.13455 32703 ft 414 kts
2026-04-22 16:48 57.92692 38.13929 32211 ft 409 kts
2026-04-22 16:48 57.95522 38.14384 31734 ft 405 kts
2026-04-22 16:48 57.98312 38.14843 31268 ft 401 kts
2026-04-22 16:49 58.01041 38.15303 30817 ft 397 kts
2026-04-22 16:49 58.01755 38.15421 30668 ft 396 kts
2026-04-22 16:49 58.04303 38.15846 30062 ft 384 kts
2026-04-22 16:49 58.06915 38.16283 29423 ft 369 kts
2026-04-22 16:50 58.09411 38.16695 28686 ft 357 kts
2026-04-22 16:50 58.11863 38.17107 27955 ft 347 kts
2026-04-22 16:50 58.14216 38.17501 27253 ft 338 kts
2026-04-22 16:50 58.16540 38.17883 26568 ft 330 kts
2026-04-22 16:51 58.18791 38.18236 25905 ft 324 kts
2026-04-22 16:51 58.21024 38.18610 25249 ft 318 kts
2026-04-22 16:51 58.23212 38.18986 24615 ft 313 kts
2026-04-22 16:51 58.25378 38.19354 23991 ft 309 kts
2026-04-22 16:52 58.27488 38.19708 23380 ft 305 kts
2026-04-22 16:52 58.29603 38.20067 22746 ft 302 kts
2026-04-22 16:52 58.31697 38.20417 22031 ft 299 kts
2026-04-22 16:52 58.33738 38.20762 21431 ft 295 kts
2026-04-22 16:53 58.35748 38.21106 21027 ft 285 kts
2026-04-22 16:53 58.37704 38.21439 20605 ft 278 kts
2026-04-22 16:53 58.39589 38.21755 20194 ft 271 kts
2026-04-22 16:53 58.41454 38.22073 19793 ft 266 kts
2026-04-22 16:54 58.43292 38.22386 19397 ft 262 kts
2026-04-22 16:54 58.45083 38.22689 19014 ft 258 kts
2026-04-22 16:54 58.46872 38.22997 18621 ft 255 kts
2026-04-22 16:54 58.48607 38.23295 18250 ft 252 kts
2026-04-22 16:55 58.50356 38.23591 17885 ft 250 kts
2026-04-22 16:55 58.52069 38.23885 17492 ft 248 kts
2026-04-22 16:55 58.53786 38.24180 17064 ft 246 kts
2026-04-22 16:55 58.55493 38.24473 16651 ft 244 kts
2026-04-22 16:56 58.57210 38.24768 16317 ft 257 kts
2026-04-22 16:56 58.59040 38.25084 15994 ft 270 kts
2026-04-22 16:56 58.60962 38.25408 15649 ft 282 kts
2026-04-22 16:56 58.62963 38.25735 15304 ft 293 kts
2026-04-22 16:57 58.65012 38.26065 14969 ft 301 kts
2026-04-22 16:57 58.67134 38.26415 14621 ft 308 kts
2026-04-22 16:57 58.69259 38.26637 14269 ft 311 kts 358°
2026-04-22 16:57 58.71417 38.26165 13918 ft 313 kts 351°
2026-04-22 16:58 58.72842 38.25634 13697 ft 314 kts 349°
2026-04-22 16:58 58.75659 38.24361 13242 ft 310 kts 347°
2026-04-22 16:58 58.77748 38.23381 12841 ft 306 kts 347°
2026-04-22 16:58 58.79820 38.22429 12447 ft 302 kts 348°
2026-04-22 16:59 58.81840 38.21554 12063 ft 299 kts 348°
2026-04-22 16:59 58.83865 38.20689 11691 ft 295 kts 348°
2026-04-22 16:59 58.85861 38.19829 11307 ft 292 kts 349°
2026-04-22 16:59 58.87858 38.19155 10935 ft 289 kts 354°
2026-04-22 17:00 58.89834 38.18811 10567 ft 286 kts 357°
2026-04-22 17:00 58.93763 38.18295 9845 ft 281 kts 357°
2026-04-22 17:00 58.95715 38.18018 9496 ft 279 kts 356°
2026-04-22 17:01 58.97645 38.17703 9131 ft 278 kts 356°
2026-04-22 17:01 58.99568 38.17372 8743 ft 276 kts 356°
2026-04-22 17:01 59.01478 38.17041 8377 ft 274 kts 356°
2026-04-22 17:01 59.03348 38.16704 8008 ft 270 kts 356°
2026-04-22 17:02 59.05199 38.16374 7657 ft 264 kts 356°
2026-04-22 17:02 59.07025 38.16055 7309 ft 260 kts 356°
2026-04-22 17:02 59.08791 38.15745 6990 ft 256 kts 356°
2026-04-22 17:02 59.10548 38.15429 6676 ft 251 kts 356°
2026-04-22 17:03 59.12275 38.15120 6364 ft 247 kts 356°
2026-04-22 17:03 59.13983 38.14818 6050 ft 243 kts 356°
2026-04-22 17:03 59.15637 38.14504 5767 ft 239 kts 355°
2026-04-22 17:03 59.17282 38.14199 5489 ft 234 kts 356°
2026-04-22 17:04 59.18352 38.14008 5316 ft 231 kts 356°
2026-04-22 17:04 59.20462 38.13635 4946 ft 224 kts 355°
2026-04-22 17:04 59.21964 38.12971 4681 ft 221 kts 344°
2026-04-22 17:04 59.23407 38.11965 4410 ft 218 kts 341°
2026-04-22 17:05 59.24814 38.10893 4209 ft 214 kts 341°
2026-04-22 17:05 59.26182 38.09869 3990 ft 211 kts 342°
2026-04-22 17:05 59.27557 38.08905 3780 ft 208 kts 343°
2026-04-22 17:05 59.28915 38.07983 3559 ft 205 kts 343°
2026-04-22 17:06 59.30240 38.07085 3351 ft 202 kts 343°
2026-04-22 17:06 59.31571 38.06183 3198 ft 203 kts 343°
2026-04-22 17:06 59.32902 38.05277 3055 ft 204 kts 343°
2026-04-22 17:06 59.34251 38.04348 2908 ft 206 kts 342°
2026-04-22 17:07 59.35608 38.03423 2770 ft 210 kts 343°
2026-04-22 17:07 59.37013 38.02477 2632 ft 213 kts 342°
2026-04-22 17:07 59.38387 38.01541 2506 ft 207 kts 342°
2026-04-22 17:07 59.39730 38.00624 2379 ft 198 kts 344°
2026-04-22 17:08 59.41040 38.00591 2241 ft 192 kts 22°
2026-04-22 17:08 59.42224 38.01763 2190 ft 190 kts 26°
2026-04-22 17:08 59.43331 38.03118 2124 ft 189 kts 34°
2026-04-22 17:08 59.44352 38.04760 2052 ft 188 kts 39°
2026-04-22 17:09 59.45301 38.06501 2022 ft 185 kts 45°
2026-04-22 17:09 59.45752 38.08791 1986 ft 188 kts 91°
2026-04-22 17:09 59.45595 38.10477 2017 ft 188 kts 100°
2026-04-22 17:09 59.45002 38.13651 2063 ft 187 kts 120°
2026-04-22 17:10 59.44182 38.15643 2070 ft 187 kts 128°
2026-04-22 17:10 59.43600 38.16896 2060 ft 187 kts 129°
2026-04-22 17:10 59.42413 38.19372 2038 ft 188 kts 130°
2026-04-22 17:10 59.41515 38.21211 2038 ft 179 kts 130°
2026-04-22 17:11 59.40957 38.22338 2010 ft 170 kts 132°
2026-04-22 17:11 59.39502 38.23087 1921 ft 171 kts 201°
2026-04-22 17:11 59.38859 38.22259 1959 ft 164 kts 225°
2026-04-22 17:11 59.38044 38.20702 1993 ft 162 kts 231°
2026-04-22 17:12 59.37300 38.19143 2014 ft 150 kts 232°
2026-04-22 17:12 59.36588 38.17710 2000 ft 146 kts 230°
2026-04-22 17:12 59.35862 38.16347 2008 ft 141 kts 228°
2026-04-22 17:12 59.35139 38.15065 1846 ft 142 kts 226°
2026-04-22 17:13 59.34403 38.13776 1651 ft 141 kts 226°
2026-04-22 17:13 59.33667 38.12493 1449 ft 141 kts 226°
2026-04-22 17:13 59.32942 38.11235 1275 ft 140 kts 226°
2026-04-22 17:13 59.32212 38.09967 1096 ft 139 kts 226°
2026-04-22 17:14 59.31502 38.08726 1012 ft 137 kts 226°
2026-04-22 17:14 59.30801 38.07512 932 ft 133 kts 225°
2026-04-22 17:14 59.30126 38.06308 820 ft 128 kts 224°
2026-04-22 17:14 59.29488 38.05178 674 ft 121 kts 224°
2026-04-22 17:15 59.29081 38.04455 566 ft 117 kts 223°
2026-04-22 17:15 59.28273 38.03053 393 ft 115 kts 221°
2026-04-22 17:15 59.27763 38.02153 373 ft 74 kts 222°
2026-04-22 17:15 59.27603 38.01830 373 ft 2 kts 210°
2026-04-22 17:16 59.27596 38.01828 373 ft 1 kts 171°
2026-04-22 17:16 59.27591 38.01834 373 ft 1 kts 128°
2026-04-22 17:16 59.27593 38.01869 373 ft 4 kts 55°
2026-04-22 17:16 59.27640 38.01946 373 ft 14 kts 39°
2026-04-22 17:17 59.27734 38.02099 374 ft 19 kts 41°
2026-04-22 17:17 59.27842 38.02202 373 ft 14 kts 335°
2026-04-22 17:17 59.27901 38.02085 375 ft 12 kts 311°
2026-04-22 17:17 59.27951 38.02042 375 ft 1 kts 28°
2026-04-22 17:18 59.27975 38.02088 375 ft 11 kts 46°
2026-04-22 17:18 59.28034 38.02183 375 ft 0 kts 11°
2026-04-22 17:18 59.28059 38.02161 375 ft 0 kts 311°
2026-04-22 17:22 59.28059 38.02160 375 ft 0 kts 311°